Tyler, TX

5:59 PM CST on February 19, 2017 (GMT -0600)
Tyler Pounds

Weather History for KTYR - December, 2011

Change the Weather History Date:

Friday, December 2, 2011

  Actual Average Record
Temperature  
Mean Temperature 61 °F 50 °F  
Max Temperature 69 °F 60 °F 81 °F (1982)
Min Temperature 52 °F 41 °F 20 °F (1910)
Degree Days  
Heating Degree Days 4 15  
Month to date heating degree days 15 30  
Since 1 July heating degree days 323 404  
Cooling Degree Days 0 0  
Month to date cooling degree days 0 0  
Year to date cooling degree days 3676 2411  
Growing Degree Days 11 (Base 50)    
Moisture  
Dew Point 44 °F    
Average Humidity 62    
Maximum Humidity 86    
Minimum Humidity 37    
Precipitation  
Precipitation 0.00 in 0.14 in 2.78 in (1953)
Month to date precipitation 0.00 0.27  
Year to date precipitation 19.24 41.82  
Snow  
Snow 0.00 in - - ()
Month to date snowfall 0.0  
Since 1 July snowfall 0.0  
Snow Depth 0.00 in    
Sea Level Pressure  
Sea Level Pressure 30.28 in    
Wind  
Wind Speed 7 mph (SE)    
Max Wind Speed 14 mph    
Max Gust Speed 17 mph    
Visibility 10 miles    
Events      
T = Trace of Precipitation, MM = Missing Value Source: NWS Daily Summary

Daily Weather History Graph

Daily Weather History Graph

Search for Another Location

Airport or City:

Trip Planner

Search our weather history database for the weather conditions in past years. The results will help you decide how hot, cold, wet, or windy it might be!

Date:

Astronomy

Dec. 02, 2011 Rise Set
Actual Time 7:05 AM CST 5:16 PM CST
Civil Twilight 6:38 AM CST 5:42 PM CST
Nautical Twilight 6:08 AM CST 6:13 PM CST
Astronomical Twilight 5:38 AM CST 6:42 PM CST
Moon 12:35 PM CST (12/2) No Moon Set
Length of Visible Light 11h 04m
Length of Day
10h 10m
First Quarter, 53% of the Moon is Illuminated
Dec 2
First Quarter
Dec 10
Full
Dec 17
Last Quarter
Dec 24
New
Jan 1
First Quarter

Hourly Weather History & Observations

Time (CST) Temp. Dew Point Humidity Pressure Visibility Wind Dir Wind Speed Gust Speed Precip Events Conditions
12:53 AM 57.0 °F 50.0 °F 77% 30.29 in 10.0 mi SSE 4.6 mph - N/A   Mostly Cloudy
1:53 AM 57.0 °F 51.1 °F 81% 30.28 in 10.0 mi SSE 9.2 mph - N/A   Overcast
2:53 AM 55.9 °F 51.1 °F 84% 30.28 in 10.0 mi SSE 9.2 mph - N/A   Overcast
3:53 AM 55.0 °F 50.0 °F 83% 30.28 in 10.0 mi SSE 5.8 mph - N/A   Mostly Cloudy
4:53 AM 54.0 °F 48.9 °F 83% 30.28 in 10.0 mi SSE 5.8 mph - N/A   Mostly Cloudy
5:53 AM 53.1 °F 46.9 °F 80% 30.31 in 10.0 mi NW 4.6 mph - N/A   Overcast
6:23 AM 53.6 °F 48.2 °F 82% 30.33 in 10.0 mi North 5.8 mph - N/A   Overcast
6:53 AM 54.0 °F 46.9 °F 77% 30.32 in 10.0 mi NE 4.6 mph - N/A   Overcast
7:53 AM 55.0 °F 45.0 °F 69% 30.34 in 10.0 mi East 4.6 mph - N/A   Overcast
8:53 AM 55.0 °F 46.0 °F 72% 30.36 in 10.0 mi Calm Calm - N/A   Overcast
9:53 AM 57.0 °F 45.0 °F 64% 30.35 in 10.0 mi East 5.8 mph - N/A   Overcast
10:09 AM 59.0 °F 44.6 °F 59% 30.36 in 10.0 mi East 5.8 mph - N/A   Scattered Clouds
10:53 AM 62.1 °F 45.0 °F 53% 30.35 in 10.0 mi ESE 8.1 mph - N/A   Unknown
11:53 AM 64.9 °F 46.0 °F 50% 30.32 in 10.0 mi SSE 6.9 mph - N/A   Scattered Clouds
12:53 PM 66.0 °F 48.0 °F 52% 30.28 in 10.0 mi SE 11.5 mph - N/A   Partly Cloudy
1:53 PM 69.1 °F 48.0 °F 47% 30.26 in 10.0 mi SSE 10.4 mph 16.1 mph N/A   Overcast
2:53 PM 68.0 °F 46.9 °F 47% 30.24 in 10.0 mi ESE 9.2 mph - N/A   Scattered Clouds
3:53 PM 66.9 °F 39.0 °F 36% 30.23 in 10.0 mi SSE 6.9 mph - N/A   Clear
4:53 PM 64.0 °F 43.0 °F 46% 30.22 in 10.0 mi SE 5.8 mph - N/A   Mostly Cloudy
5:53 PM 62.1 °F 37.9 °F 41% 30.23 in 10.0 mi SE 4.6 mph - N/A   Mostly Cloudy
6:53 PM 62.1 °F 37.9 °F 41% 30.25 in 10.0 mi ESE 3.5 mph - N/A   Mostly Cloudy
7:53 PM 60.1 °F 37.9 °F 44% 30.26 in 10.0 mi ESE 6.9 mph - N/A   Clear
8:53 PM 59.0 °F 37.9 °F 46% 30.25 in 10.0 mi ESE 9.2 mph - N/A   Partly Cloudy
9:53 PM 57.0 °F 37.9 °F 49% 30.24 in 10.0 mi SE 9.2 mph - N/A   Clear
10:53 PM 55.9 °F 37.0 °F 49% 30.23 in 10.0 mi SE 9.2 mph - N/A   Clear
11:53 PM 55.9 °F 37.0 °F 49% 30.21 in 10.0 mi SE 11.5 mph - N/A   Clear